Time,TemperatureF,DewpointF,PressureIn,WindDirection,WindDirectionDegrees,WindSpeedMPH,WindSpeedGustMPH,Humidity,HourlyPrecipIn,Conditions,Clouds,dailyrainin,SoftwareType,DateUTC
2016-02-13 00:00:00,31.0,15.0,-100.00,North,-9999,-999.9,-999.0,51,-99.99,,,-99.99,,2016-02-13 07:00:00,
2016-02-13 00:54:00,31.0,15.0,-100.00,North,-9999,-999.9,-999.0,51,-99.99,,,-99.99,,2016-02-13 07:54:00,
2016-02-13 01:00:00,33.0,17.0,-100.00,North,-9999,-999.9,-999.0,52,-99.99,,,-99.99,,2016-02-13 08:00:00,
2016-02-13 01:54:00,33.0,17.0,-100.00,North,-9999,-999.9,-999.0,52,-99.99,,,-99.99,,2016-02-13 08:54:00,
2016-02-13 02:00:00,29.0,15.0,-100.00,North,-9999,-999.9,-999.0,55,-99.99,,,-99.99,,2016-02-13 09:00:00,
2016-02-13 03:00:00,35.0,20.0,-100.00,North,-9999,-999.9,-999.0,54,-99.99,,,-99.99,,2016-02-13 10:00:00,
2016-02-13 03:54:00,35.0,20.0,-100.00,North,-9999,-999.9,-999.0,54,-99.99,,,-99.99,,2016-02-13 10:54:00,
2016-02-13 04:00:00,36.0,16.0,-100.00,North,-9999,-999.9,-999.0,43,-99.99,,,-99.99,,2016-02-13 11:00:00,
2016-02-13 05:00:00,36.0,15.0,-100.00,North,-9999,-999.9,-999.0,42,-99.99,,,-99.99,,2016-02-13 12:00:00,
2016-02-13 05:47:00,36.0,15.0,-100.00,North,-9999,-999.9,-999.0,42,-99.99,,,-99.99,,2016-02-13 12:47:00,
2016-02-13 06:00:00,35.0,17.0,-100.00,North,-9999,-999.9,-999.0,47,-99.99,,,-99.99,,2016-02-13 13:00:00,
2016-02-13 06:54:00,35.0,17.0,-100.00,North,-9999,-999.9,-999.0,47,-99.99,,,-99.99,,2016-02-13 13:54:00,
2016-02-13 07:00:00,32.0,21.0,-100.00,North,-9999,-999.9,-999.0,63,-99.99,,,-99.99,,2016-02-13 14:00:00,
2016-02-13 07:54:00,32.0,21.0,-100.00,North,-9999,-999.9,-999.0,63,-99.99,,,-99.99,,2016-02-13 14:54:00,
2016-02-13 08:00:00,35.0,24.0,-100.00,North,-9999,-999.9,-999.0,62,-99.99,,,-99.99,,2016-02-13 15:00:00,
2016-02-13 10:00:00,38.0,20.0,-100.00,North,-9999,-999.9,-999.0,48,-99.99,,,-99.99,,2016-02-13 17:00:00,
2016-02-13 10:55:00,38.0,20.0,-100.00,North,-9999,-999.9,-999.0,48,-99.99,,,-99.99,,2016-02-13 17:55:00,
2016-02-13 11:00:00,40.0,20.0,-100.00,North,-9999,-999.9,-999.0,44,-99.99,,,-99.99,,2016-02-13 18:00:00,
2016-02-13 11:56:00,40.0,20.0,-100.00,North,-9999,-999.9,-999.0,44,-99.99,,,-99.99,,2016-02-13 18:56:00,
2016-02-13 12:00:00,40.0,15.0,-100.00,North,-9999,-999.9,-999.0,35,-99.99,,,-99.99,,2016-02-13 19:00:00,
2016-02-13 13:00:00,40.0,13.0,-100.00,North,-9999,-999.9,-999.0,33,-99.99,,,-99.99,,2016-02-13 20:00:00,
2016-02-13 13:47:00,40.0,13.0,-100.00,North,-9999,-999.9,-999.0,33,-99.99,,,-99.99,,2016-02-13 20:47:00,
2016-02-13 13:54:00,40.0,13.0,-100.00,North,-9999,-999.9,-999.0,33,-99.99,,,-99.99,,2016-02-13 20:54:00,
2016-02-13 14:00:00,36.0,12.0,-100.00,North,-9999,-999.9,-999.0,37,-99.99,,,-99.99,,2016-02-13 21:00:00,
2016-02-13 16:00:00,21.0,18.0,-100.00,North,-9999,-999.9,-999.0,88,-99.99,,,-99.99,,2016-02-13 23:00:00,
2016-02-13 16:56:00,21.0,18.0,-100.00,North,-9999,-999.9,-999.0,88,-99.99,,,-99.99,,2016-02-13 23:56:00,
2016-02-13 17:00:00,22.0,15.0,-100.00,North,-9999,-999.9,-999.0,76,-99.99,,,-99.99,,2016-02-14 00:00:00,
2016-02-13 17:47:00,22.0,15.0,-100.00,North,-9999,-999.9,-999.0,76,-99.99,,,-99.99,,2016-02-14 00:47:00,
2016-02-13 17:54:00,22.0,15.0,-100.00,North,-9999,-999.9,-999.0,76,-99.99,,,-99.99,,2016-02-14 00:54:00,
2016-02-13 18:00:00,22.0,11.0,-100.00,North,-9999,-999.9,-999.0,61,-99.99,,,-99.99,,2016-02-14 01:00:00,
2016-02-13 18:54:00,22.0,11.0,-100.00,North,-9999,-999.9,-999.0,61,-99.99,,,-99.99,,2016-02-14 01:54:00,
2016-02-13 19:00:00,22.0,6.0,-100.00,North,-9999,-999.9,-999.0,50,-99.99,,,-99.99,,2016-02-14 02:00:00,
2016-02-13 19:54:00,22.0,6.0,-100.00,North,-9999,-999.9,-999.0,50,-99.99,,,-99.99,,2016-02-14 02:54:00,
2016-02-13 20:47:00,22.0,3.0,-100.00,North,-9999,-999.9,-999.0,43,-99.99,,,-99.99,,2016-02-14 03:47:00,